User: anonymous   Login
Location: Lima
(44.6384°N, 112.5920°W)
Time: 19:12:30
(UTC+00:00)
Language:

BEESAT - Orbit

View from above orbital plane
View from above orbital plane
View from above satellite
View from above satellite

Ground track
Ground track

The orbit data is extracted from the following two-line orbital elements,

1 35933U 09051C   24112.64717160  .00003711  00000-0  80767-3 0  9993
2 35933  98.4721 355.8000 0006423 135.7368 224.4345 14.58583186774387
Epoch (UTC): 21 April 2024 15:31:55
Eccentricity: 0.0006423
inclination: 98.4721°
perigee height: 693 km
apogee height: 702 km
right ascension of ascending node: 355.8000°
argument of perigee: 135.7368°
revolutions per day: 14.58583186
mean anomaly at epoch: 224.4345°
orbit number at epoch: 77438

The dashed part of the orbit path shows where the satellite is in the earth's shadow,  

DLR